Index of /20260506/WXO-DD/model_rdps/10km/06/047
Name Last modified Size Description
Parent Directory -
20260506T06Z_MSC_RDPS_AbsoluteVorticity_IsbL-0250_RLatLon0.09_PT047H.grib2 2026-05-06 08:53 589K
20260506T06Z_MSC_RDPS_AbsoluteVorticity_IsbL-0500_RLatLon0.09_PT047H.grib2 2026-05-06 08:53 550K
20260506T06Z_MSC_RDPS_AbsoluteVorticity_IsbL-0700_RLatLon0.09_PT047H.grib2 2026-05-06 08:53 742K
20260506T06Z_MSC_RDPS_AbsoluteVorticity_IsbL-0850_RLatLon0.09_PT047H.grib2 2026-05-06 08:53 775K
20260506T06Z_MSC_RDPS_AirTemp_AGL-120m_RLatLon0.09_PT047H.grib2 2026-05-06 08:53 370K
20260506T06Z_MSC_RDPS_AirTemp_AGL-2m_RLatLon0.09_PT047H.grib2 2026-05-06 08:53 629K
20260506T06Z_MSC_RDPS_AirTemp_AGL-40m_RLatLon0.09_PT047H.grib2 2026-05-06 08:53 389K
20260506T06Z_MSC_RDPS_AirTemp_AGL-80m_RLatLon0.09_PT047H.grib2 2026-05-06 08:53 378K
20260506T06Z_MSC_RDPS_AirTemp_IsbL-0001_RLatLon0.09_PT047H.grib2 2026-05-06 08:53 297K
20260506T06Z_MSC_RDPS_AirTemp_IsbL-0005_RLatLon0.09_PT047H.grib2 2026-05-06 08:53 369K
20260506T06Z_MSC_RDPS_AirTemp_IsbL-0010_RLatLon0.09_PT047H.grib2 2026-05-06 08:53 386K
20260506T06Z_MSC_RDPS_AirTemp_IsbL-0020_RLatLon0.09_PT047H.grib2 2026-05-06 08:53 316K
20260506T06Z_MSC_RDPS_AirTemp_IsbL-0030_RLatLon0.09_PT047H.grib2 2026-05-06 08:53 335K
20260506T06Z_MSC_RDPS_AirTemp_IsbL-0050_RLatLon0.09_PT047H.grib2 2026-05-06 08:53 309K
20260506T06Z_MSC_RDPS_AirTemp_IsbL-0100_RLatLon0.09_PT047H.grib2 2026-05-06 08:53 419K
20260506T06Z_MSC_RDPS_AirTemp_IsbL-0150_RLatLon0.09_PT047H.grib2 2026-05-06 08:53 404K
20260506T06Z_MSC_RDPS_AirTemp_IsbL-0175_RLatLon0.09_PT047H.grib2 2026-05-06 08:53 399K
20260506T06Z_MSC_RDPS_AirTemp_IsbL-0200_RLatLon0.09_PT047H.grib2 2026-05-06 08:53 405K
20260506T06Z_MSC_RDPS_AirTemp_IsbL-0225_RLatLon0.09_PT047H.grib2 2026-05-06 08:53 407K
20260506T06Z_MSC_RDPS_AirTemp_IsbL-0250_RLatLon0.09_PT047H.grib2 2026-05-06 08:53 414K
20260506T06Z_MSC_RDPS_AirTemp_IsbL-0275_RLatLon0.09_PT047H.grib2 2026-05-06 08:53 396K
20260506T06Z_MSC_RDPS_AirTemp_IsbL-0300_RLatLon0.09_PT047H.grib2 2026-05-06 08:53 428K
20260506T06Z_MSC_RDPS_AirTemp_IsbL-0350_RLatLon0.09_PT047H.grib2 2026-05-06 08:53 415K
20260506T06Z_MSC_RDPS_AirTemp_IsbL-0400_RLatLon0.09_PT047H.grib2 2026-05-06 08:53 416K
20260506T06Z_MSC_RDPS_AirTemp_IsbL-0450_RLatLon0.09_PT047H.grib2 2026-05-06 08:53 425K
20260506T06Z_MSC_RDPS_AirTemp_IsbL-0500_RLatLon0.09_PT047H.grib2 2026-05-06 08:53 401K
20260506T06Z_MSC_RDPS_AirTemp_IsbL-0550_RLatLon0.09_PT047H.grib2 2026-05-06 08:53 417K
20260506T06Z_MSC_RDPS_AirTemp_IsbL-0600_RLatLon0.09_PT047H.grib2 2026-05-06 08:53 435K
20260506T06Z_MSC_RDPS_AirTemp_IsbL-0650_RLatLon0.09_PT047H.grib2 2026-05-06 08:53 449K
20260506T06Z_MSC_RDPS_AirTemp_IsbL-0700_RLatLon0.09_PT047H.grib2 2026-05-06 08:53 473K
20260506T06Z_MSC_RDPS_AirTemp_IsbL-0750_RLatLon0.09_PT047H.grib2 2026-05-06 08:53 513K
20260506T06Z_MSC_RDPS_AirTemp_IsbL-0800_RLatLon0.09_PT047H.grib2 2026-05-06 08:53 446K
20260506T06Z_MSC_RDPS_AirTemp_IsbL-0850_RLatLon0.09_PT047H.grib2 2026-05-06 08:53 493K
20260506T06Z_MSC_RDPS_AirTemp_IsbL-0875_RLatLon0.09_PT047H.grib2 2026-05-06 08:53 513K
20260506T06Z_MSC_RDPS_AirTemp_IsbL-0900_RLatLon0.09_PT047H.grib2 2026-05-06 08:53 521K
20260506T06Z_MSC_RDPS_AirTemp_IsbL-0925_RLatLon0.09_PT047H.grib2 2026-05-06 08:53 519K
20260506T06Z_MSC_RDPS_AirTemp_IsbL-0950_RLatLon0.09_PT047H.grib2 2026-05-06 08:53 520K
20260506T06Z_MSC_RDPS_AirTemp_IsbL-0970_RLatLon0.09_PT047H.grib2 2026-05-06 08:53 513K
20260506T06Z_MSC_RDPS_AirTemp_IsbL-0985_RLatLon0.09_PT047H.grib2 2026-05-06 08:53 501K
20260506T06Z_MSC_RDPS_AirTemp_IsbL-1000_RLatLon0.09_PT047H.grib2 2026-05-06 08:53 487K
20260506T06Z_MSC_RDPS_AirTemp_IsbL-1015_RLatLon0.09_PT047H.grib2 2026-05-06 08:53 485K
20260506T06Z_MSC_RDPS_Albedo_Sfc_RLatLon0.09_PT047H.grib2 2026-05-06 08:53 155K
20260506T06Z_MSC_RDPS_CAPE_Sfc_RLatLon0.09_PT047H.grib2 2026-05-06 08:53 1.6M
20260506T06Z_MSC_RDPS_CIN_Sfc_RLatLon0.09_PT047H.grib2 2026-05-06 08:53 1.2M
20260506T06Z_MSC_RDPS_CloudWater_EAtm_RLatLon0.09_PT047H.grib2 2026-05-06 08:53 225K
20260506T06Z_MSC_RDPS_ConvectivePrecip-Accum_Sfc_RLatLon0.09_PT047H.grib2 2026-05-06 08:53 1.0M
20260506T06Z_MSC_RDPS_DewPointDepression_AGL-2m_RLatLon0.09_PT047H.grib2 2026-05-06 08:53 400K
20260506T06Z_MSC_RDPS_DewPointDepression_IsbL-0001_RLatLon0.09_PT047H.grib2 2026-05-06 08:53 193
20260506T06Z_MSC_RDPS_DewPointDepression_IsbL-0005_RLatLon0.09_PT047H.grib2 2026-05-06 08:53 193
20260506T06Z_MSC_RDPS_DewPointDepression_IsbL-0010_RLatLon0.09_PT047H.grib2 2026-05-06 08:53 193
20260506T06Z_MSC_RDPS_DewPointDepression_IsbL-0020_RLatLon0.09_PT047H.grib2 2026-05-06 08:53 193
20260506T06Z_MSC_RDPS_DewPointDepression_IsbL-0030_RLatLon0.09_PT047H.grib2 2026-05-06 08:53 193
20260506T06Z_MSC_RDPS_DewPointDepression_IsbL-0050_RLatLon0.09_PT047H.grib2 2026-05-06 08:53 82K
20260506T06Z_MSC_RDPS_DewPointDepression_IsbL-0100_RLatLon0.09_PT047H.grib2 2026-05-06 08:53 110K
20260506T06Z_MSC_RDPS_DewPointDepression_IsbL-0150_RLatLon0.09_PT047H.grib2 2026-05-06 08:53 138K
20260506T06Z_MSC_RDPS_DewPointDepression_IsbL-0175_RLatLon0.09_PT047H.grib2 2026-05-06 08:53 173K
20260506T06Z_MSC_RDPS_DewPointDepression_IsbL-0200_RLatLon0.09_PT047H.grib2 2026-05-06 08:53 213K
20260506T06Z_MSC_RDPS_DewPointDepression_IsbL-0225_RLatLon0.09_PT047H.grib2 2026-05-06 08:53 246K
20260506T06Z_MSC_RDPS_DewPointDepression_IsbL-0250_RLatLon0.09_PT047H.grib2 2026-05-06 08:53 295K
20260506T06Z_MSC_RDPS_DewPointDepression_IsbL-0275_RLatLon0.09_PT047H.grib2 2026-05-06 08:53 304K
20260506T06Z_MSC_RDPS_DewPointDepression_IsbL-0300_RLatLon0.09_PT047H.grib2 2026-05-06 08:53 322K
20260506T06Z_MSC_RDPS_DewPointDepression_IsbL-0350_RLatLon0.09_PT047H.grib2 2026-05-06 08:53 325K
20260506T06Z_MSC_RDPS_DewPointDepression_IsbL-0400_RLatLon0.09_PT047H.grib2 2026-05-06 08:53 329K
20260506T06Z_MSC_RDPS_DewPointDepression_IsbL-0450_RLatLon0.09_PT047H.grib2 2026-05-06 08:53 335K
20260506T06Z_MSC_RDPS_DewPointDepression_IsbL-0500_RLatLon0.09_PT047H.grib2 2026-05-06 08:53 344K
20260506T06Z_MSC_RDPS_DewPointDepression_IsbL-0550_RLatLon0.09_PT047H.grib2 2026-05-06 08:53 357K
20260506T06Z_MSC_RDPS_DewPointDepression_IsbL-0600_RLatLon0.09_PT047H.grib2 2026-05-06 08:53 371K
20260506T06Z_MSC_RDPS_DewPointDepression_IsbL-0650_RLatLon0.09_PT047H.grib2 2026-05-06 08:53 375K
20260506T06Z_MSC_RDPS_DewPointDepression_IsbL-0700_RLatLon0.09_PT047H.grib2 2026-05-06 08:53 388K
20260506T06Z_MSC_RDPS_DewPointDepression_IsbL-0750_RLatLon0.09_PT047H.grib2 2026-05-06 08:53 412K
20260506T06Z_MSC_RDPS_DewPointDepression_IsbL-0800_RLatLon0.09_PT047H.grib2 2026-05-06 08:53 448K
20260506T06Z_MSC_RDPS_DewPointDepression_IsbL-0850_RLatLon0.09_PT047H.grib2 2026-05-06 08:53 478K
20260506T06Z_MSC_RDPS_DewPointDepression_IsbL-0875_RLatLon0.09_PT047H.grib2 2026-05-06 08:53 477K
20260506T06Z_MSC_RDPS_DewPointDepression_IsbL-0900_RLatLon0.09_PT047H.grib2 2026-05-06 08:53 465K
20260506T06Z_MSC_RDPS_DewPointDepression_IsbL-0925_RLatLon0.09_PT047H.grib2 2026-05-06 08:53 451K
20260506T06Z_MSC_RDPS_DewPointDepression_IsbL-0950_RLatLon0.09_PT047H.grib2 2026-05-06 08:53 441K
20260506T06Z_MSC_RDPS_DewPointDepression_IsbL-0970_RLatLon0.09_PT047H.grib2 2026-05-06 08:53 435K
20260506T06Z_MSC_RDPS_DewPointDepression_IsbL-0985_RLatLon0.09_PT047H.grib2 2026-05-06 08:53 431K
20260506T06Z_MSC_RDPS_DewPointDepression_IsbL-1000_RLatLon0.09_PT047H.grib2 2026-05-06 08:53 426K
20260506T06Z_MSC_RDPS_DewPointDepression_IsbL-1015_RLatLon0.09_PT047H.grib2 2026-05-06 08:53 415K
20260506T06Z_MSC_RDPS_DewPoint_AGL-2m_RLatLon0.09_PT047H.grib2 2026-05-06 08:53 393K
20260506T06Z_MSC_RDPS_DownwardLongwaveRadiationFlux-Accum_Sfc_RLatLon0.09_PT047H.grib2 2026-05-06 08:53 371K
20260506T06Z_MSC_RDPS_DownwardShortwaveRadiationFlux-Accum_NTAtm_RLatLon0.09_PT047H.grib2 2026-05-06 08:53 172K
20260506T06Z_MSC_RDPS_DownwardShortwaveRadiationFlux-Accum_Sfc_RLatLon0.09_PT047H.grib2 2026-05-06 08:53 569K
20260506T06Z_MSC_RDPS_FreezingRain-Accum1h_Sfc_RLatLon0.09_PT047H.grib2 2026-05-06 08:53 34K
20260506T06Z_MSC_RDPS_FreezingRain-Accum_Sfc_RLatLon0.09_PT047H.grib2 2026-05-06 08:53 190K
20260506T06Z_MSC_RDPS_GeopotentialHeight_IsbL-0001_RLatLon0.09_PT047H.grib2 2026-05-06 08:53 303K
20260506T06Z_MSC_RDPS_GeopotentialHeight_IsbL-0005_RLatLon0.09_PT047H.grib2 2026-05-06 08:53 330K
20260506T06Z_MSC_RDPS_GeopotentialHeight_IsbL-0010_RLatLon0.09_PT047H.grib2 2026-05-06 08:53 332K
20260506T06Z_MSC_RDPS_GeopotentialHeight_IsbL-0020_RLatLon0.09_PT047H.grib2 2026-05-06 08:53 298K
20260506T06Z_MSC_RDPS_GeopotentialHeight_IsbL-0030_RLatLon0.09_PT047H.grib2 2026-05-06 08:53 301K
20260506T06Z_MSC_RDPS_GeopotentialHeight_IsbL-0050_RLatLon0.09_PT047H.grib2 2026-05-06 08:53 302K
20260506T06Z_MSC_RDPS_GeopotentialHeight_IsbL-0100_RLatLon0.09_PT047H.grib2 2026-05-06 08:53 281K
20260506T06Z_MSC_RDPS_GeopotentialHeight_IsbL-0150_RLatLon0.09_PT047H.grib2 2026-05-06 08:53 224K
20260506T06Z_MSC_RDPS_GeopotentialHeight_IsbL-0175_RLatLon0.09_PT047H.grib2 2026-05-06 08:53 258K
20260506T06Z_MSC_RDPS_GeopotentialHeight_IsbL-0200_RLatLon0.09_PT047H.grib2 2026-05-06 08:53 261K
20260506T06Z_MSC_RDPS_GeopotentialHeight_IsbL-0225_RLatLon0.09_PT047H.grib2 2026-05-06 08:53 262K
20260506T06Z_MSC_RDPS_GeopotentialHeight_IsbL-0250_RLatLon0.09_PT047H.grib2 2026-05-06 08:53 263K
20260506T06Z_MSC_RDPS_GeopotentialHeight_IsbL-0275_RLatLon0.09_PT047H.grib2 2026-05-06 08:53 262K
20260506T06Z_MSC_RDPS_GeopotentialHeight_IsbL-0300_RLatLon0.09_PT047H.grib2 2026-05-06 08:53 261K
20260506T06Z_MSC_RDPS_GeopotentialHeight_IsbL-0350_RLatLon0.09_PT047H.grib2 2026-05-06 08:53 227K
20260506T06Z_MSC_RDPS_GeopotentialHeight_IsbL-0400_RLatLon0.09_PT047H.grib2 2026-05-06 08:53 224K
20260506T06Z_MSC_RDPS_GeopotentialHeight_IsbL-0450_RLatLon0.09_PT047H.grib2 2026-05-06 08:53 291K
20260506T06Z_MSC_RDPS_GeopotentialHeight_IsbL-0500_RLatLon0.09_PT047H.grib2 2026-05-06 08:53 285K
20260506T06Z_MSC_RDPS_GeopotentialHeight_IsbL-0550_RLatLon0.09_PT047H.grib2 2026-05-06 08:53 282K
20260506T06Z_MSC_RDPS_GeopotentialHeight_IsbL-0600_RLatLon0.09_PT047H.grib2 2026-05-06 08:53 278K
20260506T06Z_MSC_RDPS_GeopotentialHeight_IsbL-0650_RLatLon0.09_PT047H.grib2 2026-05-06 08:53 250K
20260506T06Z_MSC_RDPS_GeopotentialHeight_IsbL-0700_RLatLon0.09_PT047H.grib2 2026-05-06 08:53 328K
20260506T06Z_MSC_RDPS_GeopotentialHeight_IsbL-0750_RLatLon0.09_PT047H.grib2 2026-05-06 08:53 330K
20260506T06Z_MSC_RDPS_GeopotentialHeight_IsbL-0800_RLatLon0.09_PT047H.grib2 2026-05-06 08:53 369K
20260506T06Z_MSC_RDPS_GeopotentialHeight_IsbL-0850_RLatLon0.09_PT047H.grib2 2026-05-06 08:53 380K
20260506T06Z_MSC_RDPS_GeopotentialHeight_IsbL-0875_RLatLon0.09_PT047H.grib2 2026-05-06 08:53 383K
20260506T06Z_MSC_RDPS_GeopotentialHeight_IsbL-0900_RLatLon0.09_PT047H.grib2 2026-05-06 08:53 387K
20260506T06Z_MSC_RDPS_GeopotentialHeight_IsbL-0925_RLatLon0.09_PT047H.grib2 2026-05-06 08:53 363K
20260506T06Z_MSC_RDPS_GeopotentialHeight_IsbL-0950_RLatLon0.09_PT047H.grib2 2026-05-06 08:53 365K
20260506T06Z_MSC_RDPS_GeopotentialHeight_IsbL-0970_RLatLon0.09_PT047H.grib2 2026-05-06 08:53 370K
20260506T06Z_MSC_RDPS_GeopotentialHeight_IsbL-0985_RLatLon0.09_PT047H.grib2 2026-05-06 08:53 404K
20260506T06Z_MSC_RDPS_GeopotentialHeight_IsbL-1000_RLatLon0.09_PT047H.grib2 2026-05-06 08:53 417K
20260506T06Z_MSC_RDPS_GeopotentialHeight_IsbL-1015_RLatLon0.09_PT047H.grib2 2026-05-06 08:53 432K
20260506T06Z_MSC_RDPS_HighLowPressure_MSL_RLatLon0.09_PT047H.json 2026-05-06 08:46 20K
20260506T06Z_MSC_RDPS_Humidex_Sfc_RLatLon0.09_PT047H.grib2 2026-05-06 08:53 2.4M
20260506T06Z_MSC_RDPS_IcePellets-Accum1h_Sfc_RLatLon0.09_PT047H.grib2 2026-05-06 08:53 3.6K
20260506T06Z_MSC_RDPS_IcePellets-Accum_Sfc_RLatLon0.09_PT047H.grib2 2026-05-06 08:53 24K
20260506T06Z_MSC_RDPS_KIndex_Sfc_RLatLon0.09_PT047H.grib2 2026-05-06 08:53 2.5M
20260506T06Z_MSC_RDPS_LatentHeatNetFlux_Sfc_RLatLon0.09_PT047H.grib2 2026-05-06 08:53 310K
20260506T06Z_MSC_RDPS_LiftedIndex-MU-VT_IsbL-0500_RLatLon0.09_PT047H.grib2 2026-05-06 08:53 2.4M
20260506T06Z_MSC_RDPS_NetLongwaveRadiationFlux-Accum_Sfc_RLatLon0.09_PT047H.grib2 2026-05-06 08:53 545K
20260506T06Z_MSC_RDPS_NetShortwaveRadiationFlux-Accum_Sfc_RLatLon0.09_PT047H.grib2 2026-05-06 08:53 566K
20260506T06Z_MSC_RDPS_PlanetaryBoundaryLayerHeight_Sfc_RLatLon0.09_PT047H.grib2 2026-05-06 08:53 1.1M
20260506T06Z_MSC_RDPS_Precip-Accum1h_Sfc_RLatLon0.09_PT047H.grib2 2026-05-06 08:53 1.2M
20260506T06Z_MSC_RDPS_Precip-Accum_Sfc_RLatLon0.09_PT047H.grib2 2026-05-06 08:53 2.1M
20260506T06Z_MSC_RDPS_PrecipRate_Sfc_RLatLon0.09_PT047H.grib2 2026-05-06 08:53 155K
20260506T06Z_MSC_RDPS_PrecipType-Instant_Sfc_RLatLon0.09_PT047H.grib2 2026-05-06 08:53 559K
20260506T06Z_MSC_RDPS_Pressure-Trend3h_Sfc_RLatLon0.09_PT047H.grib2 2026-05-06 08:53 1.2M
20260506T06Z_MSC_RDPS_Pressure_MSL_RLatLon0.09_PT047H.grib2 2026-05-06 08:53 317K
20260506T06Z_MSC_RDPS_Pressure_PVU-1.5_RLatLon0.09_PT047H.grib2 2026-05-06 08:53 2.5M
20260506T06Z_MSC_RDPS_Pressure_PVU-1_RLatLon0.09_PT047H.grib2 2026-05-06 08:53 2.4M
20260506T06Z_MSC_RDPS_Pressure_PVU-2_RLatLon0.09_PT047H.grib2 2026-05-06 08:53 2.4M
20260506T06Z_MSC_RDPS_Pressure_Sfc_RLatLon0.09_PT047H.grib2 2026-05-06 08:53 497K
20260506T06Z_MSC_RDPS_RadiativeTemp_Sfc_RLatLon0.09_PT047H.grib2 2026-05-06 08:53 303K
20260506T06Z_MSC_RDPS_Rain-Accum1h_Sfc_RLatLon0.09_PT047H.grib2 2026-05-06 08:53 526K
20260506T06Z_MSC_RDPS_Rain-Accum_Sfc_RLatLon0.09_PT047H.grib2 2026-05-06 08:53 1.7M
20260506T06Z_MSC_RDPS_RelativeHumidity_AGL-2m_RLatLon0.09_PT047H.grib2 2026-05-06 08:53 1.0M
20260506T06Z_MSC_RDPS_RelativeHumidity_IsbL-0010_RLatLon0.09_PT047H.grib2 2026-05-06 08:53 589K
20260506T06Z_MSC_RDPS_RelativeHumidity_IsbL-0020_RLatLon0.09_PT047H.grib2 2026-05-06 08:53 649K
20260506T06Z_MSC_RDPS_RelativeHumidity_IsbL-0030_RLatLon0.09_PT047H.grib2 2026-05-06 08:53 638K
20260506T06Z_MSC_RDPS_RelativeHumidity_IsbL-0050_RLatLon0.09_PT047H.grib2 2026-05-06 08:53 356K
20260506T06Z_MSC_RDPS_RelativeHumidity_IsbL-0100_RLatLon0.09_PT047H.grib2 2026-05-06 08:53 274K
20260506T06Z_MSC_RDPS_RelativeHumidity_IsbL-0150_RLatLon0.09_PT047H.grib2 2026-05-06 08:53 403K
20260506T06Z_MSC_RDPS_RelativeHumidity_IsbL-0175_RLatLon0.09_PT047H.grib2 2026-05-06 08:53 456K
20260506T06Z_MSC_RDPS_RelativeHumidity_IsbL-0200_RLatLon0.09_PT047H.grib2 2026-05-06 08:53 529K
20260506T06Z_MSC_RDPS_RelativeHumidity_IsbL-0225_RLatLon0.09_PT047H.grib2 2026-05-06 08:53 596K
20260506T06Z_MSC_RDPS_RelativeHumidity_IsbL-0250_RLatLon0.09_PT047H.grib2 2026-05-06 08:53 663K
20260506T06Z_MSC_RDPS_RelativeHumidity_IsbL-0275_RLatLon0.09_PT047H.grib2 2026-05-06 08:53 690K
20260506T06Z_MSC_RDPS_RelativeHumidity_IsbL-0300_RLatLon0.09_PT047H.grib2 2026-05-06 08:53 737K
20260506T06Z_MSC_RDPS_RelativeHumidity_IsbL-0350_RLatLon0.09_PT047H.grib2 2026-05-06 08:53 756K
20260506T06Z_MSC_RDPS_RelativeHumidity_IsbL-0400_RLatLon0.09_PT047H.grib2 2026-05-06 08:53 771K
20260506T06Z_MSC_RDPS_RelativeHumidity_IsbL-0450_RLatLon0.09_PT047H.grib2 2026-05-06 08:53 780K
20260506T06Z_MSC_RDPS_RelativeHumidity_IsbL-0500_RLatLon0.09_PT047H.grib2 2026-05-06 08:53 793K
20260506T06Z_MSC_RDPS_RelativeHumidity_IsbL-0550_RLatLon0.09_PT047H.grib2 2026-05-06 08:53 814K
20260506T06Z_MSC_RDPS_RelativeHumidity_IsbL-0600_RLatLon0.09_PT047H.grib2 2026-05-06 08:53 836K
20260506T06Z_MSC_RDPS_RelativeHumidity_IsbL-0650_RLatLon0.09_PT047H.grib2 2026-05-06 08:53 847K
20260506T06Z_MSC_RDPS_RelativeHumidity_IsbL-0700_RLatLon0.09_PT047H.grib2 2026-05-06 08:53 881K
20260506T06Z_MSC_RDPS_RelativeHumidity_IsbL-0750_RLatLon0.09_PT047H.grib2 2026-05-06 08:53 925K
20260506T06Z_MSC_RDPS_RelativeHumidity_IsbL-0800_RLatLon0.09_PT047H.grib2 2026-05-06 08:53 1.0M
20260506T06Z_MSC_RDPS_RelativeHumidity_IsbL-0850_RLatLon0.09_PT047H.grib2 2026-05-06 08:53 1.0M
20260506T06Z_MSC_RDPS_RelativeHumidity_IsbL-0875_RLatLon0.09_PT047H.grib2 2026-05-06 08:53 1.1M
20260506T06Z_MSC_RDPS_RelativeHumidity_IsbL-0900_RLatLon0.09_PT047H.grib2 2026-05-06 08:53 1.1M
20260506T06Z_MSC_RDPS_RelativeHumidity_IsbL-0925_RLatLon0.09_PT047H.grib2 2026-05-06 08:53 1.1M
20260506T06Z_MSC_RDPS_RelativeHumidity_IsbL-0950_RLatLon0.09_PT047H.grib2 2026-05-06 08:53 1.1M
20260506T06Z_MSC_RDPS_RelativeHumidity_IsbL-0970_RLatLon0.09_PT047H.grib2 2026-05-06 08:53 1.0M
20260506T06Z_MSC_RDPS_RelativeHumidity_IsbL-0985_RLatLon0.09_PT047H.grib2 2026-05-06 08:53 1.0M
20260506T06Z_MSC_RDPS_RelativeHumidity_IsbL-1000_RLatLon0.09_PT047H.grib2 2026-05-06 08:53 1.0M
20260506T06Z_MSC_RDPS_RelativeHumidity_IsbL-1015_RLatLon0.09_PT047H.grib2 2026-05-06 08:53 1.0M
20260506T06Z_MSC_RDPS_Runoff-Accum_Sfc_RLatLon0.09_PT047H.grib2 2026-05-06 08:53 76K
20260506T06Z_MSC_RDPS_SWEATIndex_Sfc_RLatLon0.09_PT047H.grib2 2026-05-06 08:53 2.4M
20260506T06Z_MSC_RDPS_SeeingIndex_EAtm_RLatLon0.09_PT047H.grib2 2026-05-06 08:53 1.0M
20260506T06Z_MSC_RDPS_SensibleHeatNetFlux_Sfc_RLatLon0.09_PT047H.grib2 2026-05-06 08:53 206K
20260506T06Z_MSC_RDPS_ShowalterIndex_IsbL-0500_RLatLon0.09_PT047H.grib2 2026-05-06 08:53 2.6M
20260506T06Z_MSC_RDPS_SkyTransparencyIndex_EAtm_RLatLon0.09_PT047H.grib2 2026-05-06 08:53 725K
20260506T06Z_MSC_RDPS_Snow-Accum1h_Sfc_RLatLon0.09_PT047H.grib2 2026-05-06 08:53 504K
20260506T06Z_MSC_RDPS_Snow-Accum_Sfc_RLatLon0.09_PT047H.grib2 2026-05-06 08:53 746K
20260506T06Z_MSC_RDPS_SnowDensity_Sfc_RLatLon0.09_PT047H.grib2 2026-05-06 08:53 174K
20260506T06Z_MSC_RDPS_SnowDepth_Sfc_RLatLon0.09_PT047H.grib2 2026-05-06 08:53 638K
20260506T06Z_MSC_RDPS_SoilTemp_DBS-0to10cm_RLatLon0.09_PT047H.grib2 2026-05-06 08:53 238K
20260506T06Z_MSC_RDPS_SoilTemp_Sfc_RLatLon0.09_PT047H.grib2 2026-05-06 08:53 261K
20260506T06Z_MSC_RDPS_SoilVolumetricIceContent_Sfc_RLatLon0.09_PT047H.grib2 2026-05-06 08:53 147K
20260506T06Z_MSC_RDPS_SoilVolumetricWaterContent_DBS-0to10cm_RLatLon0.09_PT047H.grib2 2026-05-06 08:53 285K
20260506T06Z_MSC_RDPS_SoilVolumetricWaterContent_DBS-0to1cm_RLatLon0.09_PT047H.grib2 2026-05-06 08:53 343K
20260506T06Z_MSC_RDPS_SpecificHumidity_AGL-120m_RLatLon0.09_PT047H.grib2 2026-05-06 08:53 496K
20260506T06Z_MSC_RDPS_SpecificHumidity_AGL-2m_RLatLon0.09_PT047H.grib2 2026-05-06 08:53 662K
20260506T06Z_MSC_RDPS_SpecificHumidity_AGL-40m_RLatLon0.09_PT047H.grib2 2026-05-06 08:53 502K
20260506T06Z_MSC_RDPS_SpecificHumidity_AGL-80m_RLatLon0.09_PT047H.grib2 2026-05-06 08:53 497K
20260506T06Z_MSC_RDPS_SpecificHumidity_IsbL-0001_RLatLon0.09_PT047H.grib2 2026-05-06 08:53 404K
20260506T06Z_MSC_RDPS_SpecificHumidity_IsbL-0005_RLatLon0.09_PT047H.grib2 2026-05-06 08:53 376K
20260506T06Z_MSC_RDPS_SpecificHumidity_IsbL-0010_RLatLon0.09_PT047H.grib2 2026-05-06 08:53 411K
20260506T06Z_MSC_RDPS_SpecificHumidity_IsbL-0020_RLatLon0.09_PT047H.grib2 2026-05-06 08:53 495K
20260506T06Z_MSC_RDPS_SpecificHumidity_IsbL-0030_RLatLon0.09_PT047H.grib2 2026-05-06 08:53 371K
20260506T06Z_MSC_RDPS_SpecificHumidity_IsbL-0050_RLatLon0.09_PT047H.grib2 2026-05-06 08:53 475K
20260506T06Z_MSC_RDPS_SpecificHumidity_IsbL-0100_RLatLon0.09_PT047H.grib2 2026-05-06 08:53 414K
20260506T06Z_MSC_RDPS_SpecificHumidity_IsbL-0150_RLatLon0.09_PT047H.grib2 2026-05-06 08:53 449K
20260506T06Z_MSC_RDPS_SpecificHumidity_IsbL-0175_RLatLon0.09_PT047H.grib2 2026-05-06 08:53 428K
20260506T06Z_MSC_RDPS_SpecificHumidity_IsbL-0200_RLatLon0.09_PT047H.grib2 2026-05-06 08:53 459K
20260506T06Z_MSC_RDPS_SpecificHumidity_IsbL-0225_RLatLon0.09_PT047H.grib2 2026-05-06 08:53 458K
20260506T06Z_MSC_RDPS_SpecificHumidity_IsbL-0250_RLatLon0.09_PT047H.grib2 2026-05-06 08:53 503K
20260506T06Z_MSC_RDPS_SpecificHumidity_IsbL-0275_RLatLon0.09_PT047H.grib2 2026-05-06 08:53 463K
20260506T06Z_MSC_RDPS_SpecificHumidity_IsbL-0300_RLatLon0.09_PT047H.grib2 2026-05-06 08:53 438K
20260506T06Z_MSC_RDPS_SpecificHumidity_IsbL-0350_RLatLon0.09_PT047H.grib2 2026-05-06 08:53 430K
20260506T06Z_MSC_RDPS_SpecificHumidity_IsbL-0400_RLatLon0.09_PT047H.grib2 2026-05-06 08:53 509K
20260506T06Z_MSC_RDPS_SpecificHumidity_IsbL-0450_RLatLon0.09_PT047H.grib2 2026-05-06 08:53 564K
20260506T06Z_MSC_RDPS_SpecificHumidity_IsbL-0500_RLatLon0.09_PT047H.grib2 2026-05-06 08:53 503K
20260506T06Z_MSC_RDPS_SpecificHumidity_IsbL-0550_RLatLon0.09_PT047H.grib2 2026-05-06 08:53 578K
20260506T06Z_MSC_RDPS_SpecificHumidity_IsbL-0600_RLatLon0.09_PT047H.grib2 2026-05-06 08:53 633K
20260506T06Z_MSC_RDPS_SpecificHumidity_IsbL-0650_RLatLon0.09_PT047H.grib2 2026-05-06 08:53 551K
20260506T06Z_MSC_RDPS_SpecificHumidity_IsbL-0700_RLatLon0.09_PT047H.grib2 2026-05-06 08:53 596K
20260506T06Z_MSC_RDPS_SpecificHumidity_IsbL-0750_RLatLon0.09_PT047H.grib2 2026-05-06 08:53 655K
20260506T06Z_MSC_RDPS_SpecificHumidity_IsbL-0800_RLatLon0.09_PT047H.grib2 2026-05-06 08:53 740K
20260506T06Z_MSC_RDPS_SpecificHumidity_IsbL-0850_RLatLon0.09_PT047H.grib2 2026-05-06 08:53 814K
20260506T06Z_MSC_RDPS_SpecificHumidity_IsbL-0875_RLatLon0.09_PT047H.grib2 2026-05-06 08:53 839K
20260506T06Z_MSC_RDPS_SpecificHumidity_IsbL-0900_RLatLon0.09_PT047H.grib2 2026-05-06 08:53 851K
20260506T06Z_MSC_RDPS_SpecificHumidity_IsbL-0925_RLatLon0.09_PT047H.grib2 2026-05-06 08:53 712K
20260506T06Z_MSC_RDPS_SpecificHumidity_IsbL-0950_RLatLon0.09_PT047H.grib2 2026-05-06 08:53 711K
20260506T06Z_MSC_RDPS_SpecificHumidity_IsbL-0970_RLatLon0.09_PT047H.grib2 2026-05-06 08:53 703K
20260506T06Z_MSC_RDPS_SpecificHumidity_IsbL-0985_RLatLon0.09_PT047H.grib2 2026-05-06 08:53 694K
20260506T06Z_MSC_RDPS_SpecificHumidity_IsbL-1000_RLatLon0.09_PT047H.grib2 2026-05-06 08:53 686K
20260506T06Z_MSC_RDPS_SpecificHumidity_IsbL-1015_RLatLon0.09_PT047H.grib2 2026-05-06 08:53 675K
20260506T06Z_MSC_RDPS_SpecificHumidity_Sfc_RLatLon0.09_PT047H.grib2 2026-05-06 08:53 318K
20260506T06Z_MSC_RDPS_StormRelativeHelicity_EtaL-10000_RLatLon0.09_PT047H.grib2 2026-05-06 08:53 1.1M
20260506T06Z_MSC_RDPS_StormSeverityIndex_EtaL-10000_RLatLon0.09_PT047H.grib2 2026-05-06 08:53 1.2M
20260506T06Z_MSC_RDPS_Thickness_IsbL-0850to0700_RLatLon0.09_PT047H.grib2 2026-05-06 08:53 170K
20260506T06Z_MSC_RDPS_Thickness_IsbL-1000to0500_RLatLon0.09_PT047H.grib2 2026-05-06 08:53 190K
20260506T06Z_MSC_RDPS_Thickness_IsbL-1000to0850_RLatLon0.09_PT047H.grib2 2026-05-06 08:53 254K
20260506T06Z_MSC_RDPS_TotalCloudCover_Sfc_RLatLon0.09_PT047H.grib2 2026-05-06 08:53 667K
20260506T06Z_MSC_RDPS_TotalTotalsIndex_Sfc_RLatLon0.09_PT047H.grib2 2026-05-06 08:53 2.5M
20260506T06Z_MSC_RDPS_UVIndex-ClearSky_Sfc_RLatLon0.09_PT047H.grib2 2026-05-06 08:53 107K
20260506T06Z_MSC_RDPS_UVIndex_Sfc_RLatLon0.09_PT047H.grib2 2026-05-06 08:53 189K
20260506T06Z_MSC_RDPS_UpwardLongwaveRadiationFlux_NTAtm_RLatLon0.09_PT047H.grib2 2026-05-06 08:53 481K
20260506T06Z_MSC_RDPS_UpwardShortwaveRadiationFlux_NTAtm_RLatLon0.09_PT047H.grib2 2026-05-06 08:53 157K
20260506T06Z_MSC_RDPS_VerticalVelocity_IsbL-0250_RLatLon0.09_PT047H.grib2 2026-05-06 08:53 536K
20260506T06Z_MSC_RDPS_VerticalVelocity_IsbL-0500_RLatLon0.09_PT047H.grib2 2026-05-06 08:53 658K
20260506T06Z_MSC_RDPS_VerticalVelocity_IsbL-0700_RLatLon0.09_PT047H.grib2 2026-05-06 08:53 579K
20260506T06Z_MSC_RDPS_VerticalVelocity_IsbL-0850_RLatLon0.09_PT047H.grib2 2026-05-06 08:53 820K
20260506T06Z_MSC_RDPS_VerticalWindShear_EtaL-6500_RLatLon0.09_PT047H.grib2 2026-05-06 08:53 1.2M
20260506T06Z_MSC_RDPS_WindChill_Sfc_RLatLon0.09_PT047H.grib2 2026-05-06 08:53 1.2M
20260506T06Z_MSC_RDPS_WindDir_AGL-10m_RLatLon0.09_PT047H.grib2 2026-05-06 08:53 1.0M
20260506T06Z_MSC_RDPS_WindDir_AGL-120m_RLatLon0.09_PT047H.grib2 2026-05-06 08:53 614K
20260506T06Z_MSC_RDPS_WindDir_AGL-40m_RLatLon0.09_PT047H.grib2 2026-05-06 08:53 649K
20260506T06Z_MSC_RDPS_WindDir_AGL-80m_RLatLon0.09_PT047H.grib2 2026-05-06 08:53 627K
20260506T06Z_MSC_RDPS_WindDir_IsbL-0001_RLatLon0.09_PT047H.grib2 2026-05-06 08:53 310K
20260506T06Z_MSC_RDPS_WindDir_IsbL-0005_RLatLon0.09_PT047H.grib2 2026-05-06 08:53 392K
20260506T06Z_MSC_RDPS_WindDir_IsbL-0010_RLatLon0.09_PT047H.grib2 2026-05-06 08:53 381K
20260506T06Z_MSC_RDPS_WindDir_IsbL-0020_RLatLon0.09_PT047H.grib2 2026-05-06 08:53 426K
20260506T06Z_MSC_RDPS_WindDir_IsbL-0030_RLatLon0.09_PT047H.grib2 2026-05-06 08:53 411K
20260506T06Z_MSC_RDPS_WindDir_IsbL-0050_RLatLon0.09_PT047H.grib2 2026-05-06 08:53 450K
20260506T06Z_MSC_RDPS_WindDir_IsbL-0100_RLatLon0.09_PT047H.grib2 2026-05-06 08:53 417K
20260506T06Z_MSC_RDPS_WindDir_IsbL-0150_RLatLon0.09_PT047H.grib2 2026-05-06 08:53 408K
20260506T06Z_MSC_RDPS_WindDir_IsbL-0175_RLatLon0.09_PT047H.grib2 2026-05-06 08:53 432K
20260506T06Z_MSC_RDPS_WindDir_IsbL-0200_RLatLon0.09_PT047H.grib2 2026-05-06 08:53 452K
20260506T06Z_MSC_RDPS_WindDir_IsbL-0225_RLatLon0.09_PT047H.grib2 2026-05-06 08:53 454K
20260506T06Z_MSC_RDPS_WindDir_IsbL-0250_RLatLon0.09_PT047H.grib2 2026-05-06 08:53 456K
20260506T06Z_MSC_RDPS_WindDir_IsbL-0275_RLatLon0.09_PT047H.grib2 2026-05-06 08:53 465K
20260506T06Z_MSC_RDPS_WindDir_IsbL-0300_RLatLon0.09_PT047H.grib2 2026-05-06 08:53 465K
20260506T06Z_MSC_RDPS_WindDir_IsbL-0350_RLatLon0.09_PT047H.grib2 2026-05-06 08:53 488K
20260506T06Z_MSC_RDPS_WindDir_IsbL-0400_RLatLon0.09_PT047H.grib2 2026-05-06 08:53 507K
20260506T06Z_MSC_RDPS_WindDir_IsbL-0450_RLatLon0.09_PT047H.grib2 2026-05-06 08:53 531K
20260506T06Z_MSC_RDPS_WindDir_IsbL-0500_RLatLon0.09_PT047H.grib2 2026-05-06 08:53 552K
20260506T06Z_MSC_RDPS_WindDir_IsbL-0550_RLatLon0.09_PT047H.grib2 2026-05-06 08:53 569K
20260506T06Z_MSC_RDPS_WindDir_IsbL-0600_RLatLon0.09_PT047H.grib2 2026-05-06 08:53 593K
20260506T06Z_MSC_RDPS_WindDir_IsbL-0650_RLatLon0.09_PT047H.grib2 2026-05-06 08:53 627K
20260506T06Z_MSC_RDPS_WindDir_IsbL-0700_RLatLon0.09_PT047H.grib2 2026-05-06 08:53 670K
20260506T06Z_MSC_RDPS_WindDir_IsbL-0750_RLatLon0.09_PT047H.grib2 2026-05-06 08:53 721K
20260506T06Z_MSC_RDPS_WindDir_IsbL-0800_RLatLon0.09_PT047H.grib2 2026-05-06 08:53 785K
20260506T06Z_MSC_RDPS_WindDir_IsbL-0850_RLatLon0.09_PT047H.grib2 2026-05-06 08:53 861K
20260506T06Z_MSC_RDPS_WindDir_IsbL-0875_RLatLon0.09_PT047H.grib2 2026-05-06 08:53 889K
20260506T06Z_MSC_RDPS_WindDir_IsbL-0900_RLatLon0.09_PT047H.grib2 2026-05-06 08:53 911K
20260506T06Z_MSC_RDPS_WindDir_IsbL-0925_RLatLon0.09_PT047H.grib2 2026-05-06 08:53 922K
20260506T06Z_MSC_RDPS_WindDir_IsbL-0950_RLatLon0.09_PT047H.grib2 2026-05-06 08:53 927K
20260506T06Z_MSC_RDPS_WindDir_IsbL-0970_RLatLon0.09_PT047H.grib2 2026-05-06 08:53 933K
20260506T06Z_MSC_RDPS_WindDir_IsbL-0985_RLatLon0.09_PT047H.grib2 2026-05-06 08:53 941K
20260506T06Z_MSC_RDPS_WindDir_IsbL-1000_RLatLon0.09_PT047H.grib2 2026-05-06 08:53 957K
20260506T06Z_MSC_RDPS_WindDir_IsbL-1015_RLatLon0.09_PT047H.grib2 2026-05-06 08:53 1.0M
20260506T06Z_MSC_RDPS_WindGust-Max_AGL-10m_RLatLon0.09_PT047H.grib2 2026-05-06 08:53 1.0M
20260506T06Z_MSC_RDPS_WindGust-Min_AGL-10m_RLatLon0.09_PT047H.grib2 2026-05-06 08:53 956K
20260506T06Z_MSC_RDPS_WindGust_AGL-10m_RLatLon0.09_PT047H.grib2 2026-05-06 08:53 1.0M
20260506T06Z_MSC_RDPS_WindSpeed_AGL-10m_RLatLon0.09_PT047H.grib2 2026-05-06 08:53 828K
20260506T06Z_MSC_RDPS_WindSpeed_AGL-120m_RLatLon0.09_PT047H.grib2 2026-05-06 08:53 660K
20260506T06Z_MSC_RDPS_WindSpeed_AGL-40m_RLatLon0.09_PT047H.grib2 2026-05-06 08:53 662K
20260506T06Z_MSC_RDPS_WindSpeed_AGL-80m_RLatLon0.09_PT047H.grib2 2026-05-06 08:53 660K
20260506T06Z_MSC_RDPS_WindSpeed_IsbL-0001_RLatLon0.09_PT047H.grib2 2026-05-06 08:53 331K
20260506T06Z_MSC_RDPS_WindSpeed_IsbL-0005_RLatLon0.09_PT047H.grib2 2026-05-06 08:53 295K
20260506T06Z_MSC_RDPS_WindSpeed_IsbL-0010_RLatLon0.09_PT047H.grib2 2026-05-06 08:53 397K
20260506T06Z_MSC_RDPS_WindSpeed_IsbL-0020_RLatLon0.09_PT047H.grib2 2026-05-06 08:53 420K
20260506T06Z_MSC_RDPS_WindSpeed_IsbL-0030_RLatLon0.09_PT047H.grib2 2026-05-06 08:53 319K
20260506T06Z_MSC_RDPS_WindSpeed_IsbL-0050_RLatLon0.09_PT047H.grib2 2026-05-06 08:53 348K
20260506T06Z_MSC_RDPS_WindSpeed_IsbL-0100_RLatLon0.09_PT047H.grib2 2026-05-06 08:53 465K
20260506T06Z_MSC_RDPS_WindSpeed_IsbL-0150_RLatLon0.09_PT047H.grib2 2026-05-06 08:53 370K
20260506T06Z_MSC_RDPS_WindSpeed_IsbL-0175_RLatLon0.09_PT047H.grib2 2026-05-06 08:53 417K
20260506T06Z_MSC_RDPS_WindSpeed_IsbL-0200_RLatLon0.09_PT047H.grib2 2026-05-06 08:53 434K
20260506T06Z_MSC_RDPS_WindSpeed_IsbL-0225_RLatLon0.09_PT047H.grib2 2026-05-06 08:53 438K
20260506T06Z_MSC_RDPS_WindSpeed_IsbL-0250_RLatLon0.09_PT047H.grib2 2026-05-06 08:53 439K
20260506T06Z_MSC_RDPS_WindSpeed_IsbL-0275_RLatLon0.09_PT047H.grib2 2026-05-06 08:53 455K
20260506T06Z_MSC_RDPS_WindSpeed_IsbL-0300_RLatLon0.09_PT047H.grib2 2026-05-06 08:53 452K
20260506T06Z_MSC_RDPS_WindSpeed_IsbL-0350_RLatLon0.09_PT047H.grib2 2026-05-06 08:53 447K
20260506T06Z_MSC_RDPS_WindSpeed_IsbL-0400_RLatLon0.09_PT047H.grib2 2026-05-06 08:53 452K
20260506T06Z_MSC_RDPS_WindSpeed_IsbL-0450_RLatLon0.09_PT047H.grib2 2026-05-06 08:53 453K
20260506T06Z_MSC_RDPS_WindSpeed_IsbL-0500_RLatLon0.09_PT047H.grib2 2026-05-06 08:53 572K
20260506T06Z_MSC_RDPS_WindSpeed_IsbL-0550_RLatLon0.09_PT047H.grib2 2026-05-06 08:53 573K
20260506T06Z_MSC_RDPS_WindSpeed_IsbL-0600_RLatLon0.09_PT047H.grib2 2026-05-06 08:53 583K
20260506T06Z_MSC_RDPS_WindSpeed_IsbL-0650_RLatLon0.09_PT047H.grib2 2026-05-06 08:53 647K
20260506T06Z_MSC_RDPS_WindSpeed_IsbL-0700_RLatLon0.09_PT047H.grib2 2026-05-06 08:53 629K
20260506T06Z_MSC_RDPS_WindSpeed_IsbL-0750_RLatLon0.09_PT047H.grib2 2026-05-06 08:53 701K
20260506T06Z_MSC_RDPS_WindSpeed_IsbL-0800_RLatLon0.09_PT047H.grib2 2026-05-06 08:53 740K
20260506T06Z_MSC_RDPS_WindSpeed_IsbL-0850_RLatLon0.09_PT047H.grib2 2026-05-06 08:53 811K
20260506T06Z_MSC_RDPS_WindSpeed_IsbL-0875_RLatLon0.09_PT047H.grib2 2026-05-06 08:53 826K
20260506T06Z_MSC_RDPS_WindSpeed_IsbL-0900_RLatLon0.09_PT047H.grib2 2026-05-06 08:53 842K
20260506T06Z_MSC_RDPS_WindSpeed_IsbL-0925_RLatLon0.09_PT047H.grib2 2026-05-06 08:53 856K
20260506T06Z_MSC_RDPS_WindSpeed_IsbL-0950_RLatLon0.09_PT047H.grib2 2026-05-06 08:53 858K
20260506T06Z_MSC_RDPS_WindSpeed_IsbL-0970_RLatLon0.09_PT047H.grib2 2026-05-06 08:53 855K
20260506T06Z_MSC_RDPS_WindSpeed_IsbL-0985_RLatLon0.09_PT047H.grib2 2026-05-06 08:53 846K
20260506T06Z_MSC_RDPS_WindSpeed_IsbL-1000_RLatLon0.09_PT047H.grib2 2026-05-06 08:53 839K
20260506T06Z_MSC_RDPS_WindSpeed_IsbL-1015_RLatLon0.09_PT047H.grib2 2026-05-06 08:53 828K
20260506T06Z_MSC_RDPS_WindU_AGL-10m_RLatLon0.09_PT047H.grib2 2026-05-06 08:53 427K
20260506T06Z_MSC_RDPS_WindU_AGL-120m_RLatLon0.09_PT047H.grib2 2026-05-06 08:53 529K
20260506T06Z_MSC_RDPS_WindU_AGL-40m_RLatLon0.09_PT047H.grib2 2026-05-06 08:53 533K
20260506T06Z_MSC_RDPS_WindU_AGL-80m_RLatLon0.09_PT047H.grib2 2026-05-06 08:53 531K
20260506T06Z_MSC_RDPS_WindU_IsbL-0001_RLatLon0.09_PT047H.grib2 2026-05-06 08:53 242K
20260506T06Z_MSC_RDPS_WindU_IsbL-0005_RLatLon0.09_PT047H.grib2 2026-05-06 08:53 285K
20260506T06Z_MSC_RDPS_WindU_IsbL-0010_RLatLon0.09_PT047H.grib2 2026-05-06 08:53 298K
20260506T06Z_MSC_RDPS_WindU_IsbL-0020_RLatLon0.09_PT047H.grib2 2026-05-06 08:53 316K
20260506T06Z_MSC_RDPS_WindU_IsbL-0030_RLatLon0.09_PT047H.grib2 2026-05-06 08:53 313K
20260506T06Z_MSC_RDPS_WindU_IsbL-0050_RLatLon0.09_PT047H.grib2 2026-05-06 08:53 376K
20260506T06Z_MSC_RDPS_WindU_IsbL-0100_RLatLon0.09_PT047H.grib2 2026-05-06 08:53 421K
20260506T06Z_MSC_RDPS_WindU_IsbL-0150_RLatLon0.09_PT047H.grib2 2026-05-06 08:53 389K
20260506T06Z_MSC_RDPS_WindU_IsbL-0175_RLatLon0.09_PT047H.grib2 2026-05-06 08:53 410K
20260506T06Z_MSC_RDPS_WindU_IsbL-0200_RLatLon0.09_PT047H.grib2 2026-05-06 08:53 426K
20260506T06Z_MSC_RDPS_WindU_IsbL-0225_RLatLon0.09_PT047H.grib2 2026-05-06 08:53 332K
20260506T06Z_MSC_RDPS_WindU_IsbL-0250_RLatLon0.09_PT047H.grib2 2026-05-06 08:53 331K
20260506T06Z_MSC_RDPS_WindU_IsbL-0275_RLatLon0.09_PT047H.grib2 2026-05-06 08:53 345K
20260506T06Z_MSC_RDPS_WindU_IsbL-0300_RLatLon0.09_PT047H.grib2 2026-05-06 08:53 342K
20260506T06Z_MSC_RDPS_WindU_IsbL-0350_RLatLon0.09_PT047H.grib2 2026-05-06 08:53 350K
20260506T06Z_MSC_RDPS_WindU_IsbL-0400_RLatLon0.09_PT047H.grib2 2026-05-06 08:53 455K
20260506T06Z_MSC_RDPS_WindU_IsbL-0450_RLatLon0.09_PT047H.grib2 2026-05-06 08:53 457K
20260506T06Z_MSC_RDPS_WindU_IsbL-0500_RLatLon0.09_PT047H.grib2 2026-05-06 08:53 462K
20260506T06Z_MSC_RDPS_WindU_IsbL-0550_RLatLon0.09_PT047H.grib2 2026-05-06 08:53 447K
20260506T06Z_MSC_RDPS_WindU_IsbL-0600_RLatLon0.09_PT047H.grib2 2026-05-06 08:53 455K
20260506T06Z_MSC_RDPS_WindU_IsbL-0650_RLatLon0.09_PT047H.grib2 2026-05-06 08:53 475K
20260506T06Z_MSC_RDPS_WindU_IsbL-0700_RLatLon0.09_PT047H.grib2 2026-05-06 08:53 620K
20260506T06Z_MSC_RDPS_WindU_IsbL-0750_RLatLon0.09_PT047H.grib2 2026-05-06 08:53 649K
20260506T06Z_MSC_RDPS_WindU_IsbL-0800_RLatLon0.09_PT047H.grib2 2026-05-06 08:53 694K
20260506T06Z_MSC_RDPS_WindU_IsbL-0850_RLatLon0.09_PT047H.grib2 2026-05-06 08:53 753K
20260506T06Z_MSC_RDPS_WindU_IsbL-0875_RLatLon0.09_PT047H.grib2 2026-05-06 08:53 773K
20260506T06Z_MSC_RDPS_WindU_IsbL-0900_RLatLon0.09_PT047H.grib2 2026-05-06 08:53 786K
20260506T06Z_MSC_RDPS_WindU_IsbL-0925_RLatLon0.09_PT047H.grib2 2026-05-06 08:53 656K
20260506T06Z_MSC_RDPS_WindU_IsbL-0950_RLatLon0.09_PT047H.grib2 2026-05-06 08:53 654K
20260506T06Z_MSC_RDPS_WindU_IsbL-0970_RLatLon0.09_PT047H.grib2 2026-05-06 08:53 790K
20260506T06Z_MSC_RDPS_WindU_IsbL-0985_RLatLon0.09_PT047H.grib2 2026-05-06 08:53 784K
20260506T06Z_MSC_RDPS_WindU_IsbL-1000_RLatLon0.09_PT047H.grib2 2026-05-06 08:53 778K
20260506T06Z_MSC_RDPS_WindU_IsbL-1015_RLatLon0.09_PT047H.grib2 2026-05-06 08:53 817K
20260506T06Z_MSC_RDPS_WindV_AGL-10m_RLatLon0.09_PT047H.grib2 2026-05-06 08:53 423K
20260506T06Z_MSC_RDPS_WindV_AGL-120m_RLatLon0.09_PT047H.grib2 2026-05-06 08:53 527K
20260506T06Z_MSC_RDPS_WindV_AGL-40m_RLatLon0.09_PT047H.grib2 2026-05-06 08:53 529K
20260506T06Z_MSC_RDPS_WindV_AGL-80m_RLatLon0.09_PT047H.grib2 2026-05-06 08:53 528K
20260506T06Z_MSC_RDPS_WindV_IsbL-0001_RLatLon0.09_PT047H.grib2 2026-05-06 08:53 245K
20260506T06Z_MSC_RDPS_WindV_IsbL-0005_RLatLon0.09_PT047H.grib2 2026-05-06 08:53 285K
20260506T06Z_MSC_RDPS_WindV_IsbL-0010_RLatLon0.09_PT047H.grib2 2026-05-06 08:53 298K
20260506T06Z_MSC_RDPS_WindV_IsbL-0020_RLatLon0.09_PT047H.grib2 2026-05-06 08:53 317K
20260506T06Z_MSC_RDPS_WindV_IsbL-0030_RLatLon0.09_PT047H.grib2 2026-05-06 08:53 313K
20260506T06Z_MSC_RDPS_WindV_IsbL-0050_RLatLon0.09_PT047H.grib2 2026-05-06 08:53 341K
20260506T06Z_MSC_RDPS_WindV_IsbL-0100_RLatLon0.09_PT047H.grib2 2026-05-06 08:53 421K
20260506T06Z_MSC_RDPS_WindV_IsbL-0150_RLatLon0.09_PT047H.grib2 2026-05-06 08:53 387K
20260506T06Z_MSC_RDPS_WindV_IsbL-0175_RLatLon0.09_PT047H.grib2 2026-05-06 08:53 410K
20260506T06Z_MSC_RDPS_WindV_IsbL-0200_RLatLon0.09_PT047H.grib2 2026-05-06 08:53 330K
20260506T06Z_MSC_RDPS_WindV_IsbL-0225_RLatLon0.09_PT047H.grib2 2026-05-06 08:53 359K
20260506T06Z_MSC_RDPS_WindV_IsbL-0250_RLatLon0.09_PT047H.grib2 2026-05-06 08:53 359K
20260506T06Z_MSC_RDPS_WindV_IsbL-0275_RLatLon0.09_PT047H.grib2 2026-05-06 08:53 370K
20260506T06Z_MSC_RDPS_WindV_IsbL-0300_RLatLon0.09_PT047H.grib2 2026-05-06 08:53 367K
20260506T06Z_MSC_RDPS_WindV_IsbL-0350_RLatLon0.09_PT047H.grib2 2026-05-06 08:53 351K
20260506T06Z_MSC_RDPS_WindV_IsbL-0400_RLatLon0.09_PT047H.grib2 2026-05-06 08:53 355K
20260506T06Z_MSC_RDPS_WindV_IsbL-0450_RLatLon0.09_PT047H.grib2 2026-05-06 08:53 457K
20260506T06Z_MSC_RDPS_WindV_IsbL-0500_RLatLon0.09_PT047H.grib2 2026-05-06 08:53 460K
20260506T06Z_MSC_RDPS_WindV_IsbL-0550_RLatLon0.09_PT047H.grib2 2026-05-06 08:53 461K
20260506T06Z_MSC_RDPS_WindV_IsbL-0600_RLatLon0.09_PT047H.grib2 2026-05-06 08:53 471K
20260506T06Z_MSC_RDPS_WindV_IsbL-0650_RLatLon0.09_PT047H.grib2 2026-05-06 08:53 489K
20260506T06Z_MSC_RDPS_WindV_IsbL-0700_RLatLon0.09_PT047H.grib2 2026-05-06 08:53 509K
20260506T06Z_MSC_RDPS_WindV_IsbL-0750_RLatLon0.09_PT047H.grib2 2026-05-06 08:53 520K
20260506T06Z_MSC_RDPS_WindV_IsbL-0800_RLatLon0.09_PT047H.grib2 2026-05-06 08:53 560K
20260506T06Z_MSC_RDPS_WindV_IsbL-0850_RLatLon0.09_PT047H.grib2 2026-05-06 08:53 614K
20260506T06Z_MSC_RDPS_WindV_IsbL-0875_RLatLon0.09_PT047H.grib2 2026-05-06 08:53 633K
20260506T06Z_MSC_RDPS_WindV_IsbL-0900_RLatLon0.09_PT047H.grib2 2026-05-06 08:53 646K
20260506T06Z_MSC_RDPS_WindV_IsbL-0925_RLatLon0.09_PT047H.grib2 2026-05-06 08:53 655K
20260506T06Z_MSC_RDPS_WindV_IsbL-0950_RLatLon0.09_PT047H.grib2 2026-05-06 08:53 795K
20260506T06Z_MSC_RDPS_WindV_IsbL-0970_RLatLon0.09_PT047H.grib2 2026-05-06 08:53 790K
20260506T06Z_MSC_RDPS_WindV_IsbL-0985_RLatLon0.09_PT047H.grib2 2026-05-06 08:53 781K
20260506T06Z_MSC_RDPS_WindV_IsbL-1000_RLatLon0.09_PT047H.grib2 2026-05-06 08:53 820K
20260506T06Z_MSC_RDPS_WindV_IsbL-1015_RLatLon0.09_PT047H.grib2 2026-05-06 08:53 811K